Index of /20260501/WXO-DD/model_gdps/15km/12/024
Name Last modified Size Description
Parent Directory -
20260501T12Z_MSC_GDPS_AbsoluteVorticity_IsbL-0200_LatLon0.15_PT024H.grib2 2026-05-01 15:56 1.2M
20260501T12Z_MSC_GDPS_AbsoluteVorticity_IsbL-0250_LatLon0.15_PT024H.grib2 2026-05-01 15:56 1.6M
20260501T12Z_MSC_GDPS_AbsoluteVorticity_IsbL-0500_LatLon0.15_PT024H.grib2 2026-05-01 15:56 1.5M
20260501T12Z_MSC_GDPS_AbsoluteVorticity_IsbL-0700_LatLon0.15_PT024H.grib2 2026-05-01 15:56 1.3M
20260501T12Z_MSC_GDPS_AbsoluteVorticity_IsbL-0850_LatLon0.15_PT024H.grib2 2026-05-01 15:56 1.6M
20260501T12Z_MSC_GDPS_AirTemp-Max_AGL-2m_LatLon0.15_PT024H.grib2 2026-05-01 15:56 738K
20260501T12Z_MSC_GDPS_AirTemp-Min_AGL-2m_LatLon0.15_PT024H.grib2 2026-05-01 15:56 791K
20260501T12Z_MSC_GDPS_AirTemp_AGL-120m_LatLon0.15_PT024H.grib2 2026-05-01 15:56 792K
20260501T12Z_MSC_GDPS_AirTemp_AGL-2m_LatLon0.15_PT024H.grib2 2026-05-01 15:56 1.0M
20260501T12Z_MSC_GDPS_AirTemp_AGL-40m_LatLon0.15_PT024H.grib2 2026-05-01 15:56 812K
20260501T12Z_MSC_GDPS_AirTemp_AGL-80m_LatLon0.15_PT024H.grib2 2026-05-01 15:56 801K
20260501T12Z_MSC_GDPS_AirTemp_IsbL-0001_LatLon0.15_PT024H.grib2 2026-05-01 15:56 647K
20260501T12Z_MSC_GDPS_AirTemp_IsbL-0005_LatLon0.15_PT024H.grib2 2026-05-01 15:56 686K
20260501T12Z_MSC_GDPS_AirTemp_IsbL-0010_LatLon0.15_PT024H.grib2 2026-05-01 15:56 689K
20260501T12Z_MSC_GDPS_AirTemp_IsbL-0020_LatLon0.15_PT024H.grib2 2026-05-01 15:56 783K
20260501T12Z_MSC_GDPS_AirTemp_IsbL-0030_LatLon0.15_PT024H.grib2 2026-05-01 15:56 747K
20260501T12Z_MSC_GDPS_AirTemp_IsbL-0050_LatLon0.15_PT024H.grib2 2026-05-01 15:56 803K
20260501T12Z_MSC_GDPS_AirTemp_IsbL-0100_LatLon0.15_PT024H.grib2 2026-05-01 15:56 958K
20260501T12Z_MSC_GDPS_AirTemp_IsbL-0150_LatLon0.15_PT024H.grib2 2026-05-01 15:56 1.0M
20260501T12Z_MSC_GDPS_AirTemp_IsbL-0175_LatLon0.15_PT024H.grib2 2026-05-01 15:56 960K
20260501T12Z_MSC_GDPS_AirTemp_IsbL-0200_LatLon0.15_PT024H.grib2 2026-05-01 15:56 972K
20260501T12Z_MSC_GDPS_AirTemp_IsbL-0225_LatLon0.15_PT024H.grib2 2026-05-01 15:56 1.0M
20260501T12Z_MSC_GDPS_AirTemp_IsbL-0250_LatLon0.15_PT024H.grib2 2026-05-01 15:56 1.0M
20260501T12Z_MSC_GDPS_AirTemp_IsbL-0275_LatLon0.15_PT024H.grib2 2026-05-01 15:56 1.0M
20260501T12Z_MSC_GDPS_AirTemp_IsbL-0300_LatLon0.15_PT024H.grib2 2026-05-01 15:56 1.0M
20260501T12Z_MSC_GDPS_AirTemp_IsbL-0350_LatLon0.15_PT024H.grib2 2026-05-01 15:56 929K
20260501T12Z_MSC_GDPS_AirTemp_IsbL-0400_LatLon0.15_PT024H.grib2 2026-05-01 15:56 940K
20260501T12Z_MSC_GDPS_AirTemp_IsbL-0450_LatLon0.15_PT024H.grib2 2026-05-01 15:56 960K
20260501T12Z_MSC_GDPS_AirTemp_IsbL-0500_LatLon0.15_PT024H.grib2 2026-05-01 15:56 1.0M
20260501T12Z_MSC_GDPS_AirTemp_IsbL-0550_LatLon0.15_PT024H.grib2 2026-05-01 15:56 800K
20260501T12Z_MSC_GDPS_AirTemp_IsbL-0600_LatLon0.15_PT024H.grib2 2026-05-01 15:56 896K
20260501T12Z_MSC_GDPS_AirTemp_IsbL-0650_LatLon0.15_PT024H.grib2 2026-05-01 15:56 925K
20260501T12Z_MSC_GDPS_AirTemp_IsbL-0700_LatLon0.15_PT024H.grib2 2026-05-01 15:56 963K
20260501T12Z_MSC_GDPS_AirTemp_IsbL-0750_LatLon0.15_PT024H.grib2 2026-05-01 15:56 1.0M
20260501T12Z_MSC_GDPS_AirTemp_IsbL-0800_LatLon0.15_PT024H.grib2 2026-05-01 15:56 1.1M
20260501T12Z_MSC_GDPS_AirTemp_IsbL-0850_LatLon0.15_PT024H.grib2 2026-05-01 15:56 1.1M
20260501T12Z_MSC_GDPS_AirTemp_IsbL-0875_LatLon0.15_PT024H.grib2 2026-05-01 15:56 1.2M
20260501T12Z_MSC_GDPS_AirTemp_IsbL-0900_LatLon0.15_PT024H.grib2 2026-05-01 15:56 1.1M
20260501T12Z_MSC_GDPS_AirTemp_IsbL-0925_LatLon0.15_PT024H.grib2 2026-05-01 15:56 1.1M
20260501T12Z_MSC_GDPS_AirTemp_IsbL-0950_LatLon0.15_PT024H.grib2 2026-05-01 15:56 1.1M
20260501T12Z_MSC_GDPS_AirTemp_IsbL-0970_LatLon0.15_PT024H.grib2 2026-05-01 15:56 1.2M
20260501T12Z_MSC_GDPS_AirTemp_IsbL-0985_LatLon0.15_PT024H.grib2 2026-05-01 15:56 1.1M
20260501T12Z_MSC_GDPS_AirTemp_IsbL-1000_LatLon0.15_PT024H.grib2 2026-05-01 15:56 1.1M
20260501T12Z_MSC_GDPS_AirTemp_IsbL-1015_LatLon0.15_PT024H.grib2 2026-05-01 15:56 1.1M
20260501T12Z_MSC_GDPS_Albedo_Sfc_LatLon0.15_PT024H.grib2 2026-05-01 15:56 238K
20260501T12Z_MSC_GDPS_CAPE_Sfc_LatLon0.15_PT024H.grib2 2026-05-01 15:56 3.8M
20260501T12Z_MSC_GDPS_CIN_Sfc_LatLon0.15_PT024H.grib2 2026-05-01 15:56 2.9M
20260501T12Z_MSC_GDPS_CloudWater_EAtm_LatLon0.15_PT024H.grib2 2026-05-01 15:56 534K
20260501T12Z_MSC_GDPS_ConvectivePrecip-Accum_Sfc_LatLon0.15_PT024H.grib2 2026-05-01 15:56 2.3M
20260501T12Z_MSC_GDPS_DewPointDepression_AGL-2m_LatLon0.15_PT024H.grib2 2026-05-01 15:56 761K
20260501T12Z_MSC_GDPS_DewPointDepression_IsbL-0010_LatLon0.15_PT024H.grib2 2026-05-01 15:56 61K
20260501T12Z_MSC_GDPS_DewPointDepression_IsbL-0020_LatLon0.15_PT024H.grib2 2026-05-01 15:56 64K
20260501T12Z_MSC_GDPS_DewPointDepression_IsbL-0030_LatLon0.15_PT024H.grib2 2026-05-01 15:56 74K
20260501T12Z_MSC_GDPS_DewPointDepression_IsbL-0050_LatLon0.15_PT024H.grib2 2026-05-01 15:56 373K
20260501T12Z_MSC_GDPS_DewPointDepression_IsbL-0100_LatLon0.15_PT024H.grib2 2026-05-01 15:56 414K
20260501T12Z_MSC_GDPS_DewPointDepression_IsbL-0150_LatLon0.15_PT024H.grib2 2026-05-01 15:56 466K
20260501T12Z_MSC_GDPS_DewPointDepression_IsbL-0175_LatLon0.15_PT024H.grib2 2026-05-01 15:56 575K
20260501T12Z_MSC_GDPS_DewPointDepression_IsbL-0200_LatLon0.15_PT024H.grib2 2026-05-01 15:56 685K
20260501T12Z_MSC_GDPS_DewPointDepression_IsbL-0225_LatLon0.15_PT024H.grib2 2026-05-01 15:56 787K
20260501T12Z_MSC_GDPS_DewPointDepression_IsbL-0250_LatLon0.15_PT024H.grib2 2026-05-01 15:56 869K
20260501T12Z_MSC_GDPS_DewPointDepression_IsbL-0275_LatLon0.15_PT024H.grib2 2026-05-01 15:56 891K
20260501T12Z_MSC_GDPS_DewPointDepression_IsbL-0300_LatLon0.15_PT024H.grib2 2026-05-01 15:56 932K
20260501T12Z_MSC_GDPS_DewPointDepression_IsbL-0350_LatLon0.15_PT024H.grib2 2026-05-01 15:56 953K
20260501T12Z_MSC_GDPS_DewPointDepression_IsbL-0400_LatLon0.15_PT024H.grib2 2026-05-01 15:56 1.0M
20260501T12Z_MSC_GDPS_DewPointDepression_IsbL-0450_LatLon0.15_PT024H.grib2 2026-05-01 15:56 1.0M
20260501T12Z_MSC_GDPS_DewPointDepression_IsbL-0500_LatLon0.15_PT024H.grib2 2026-05-01 15:56 1.0M
20260501T12Z_MSC_GDPS_DewPointDepression_IsbL-0550_LatLon0.15_PT024H.grib2 2026-05-01 15:56 1.0M
20260501T12Z_MSC_GDPS_DewPointDepression_IsbL-0600_LatLon0.15_PT024H.grib2 2026-05-01 15:56 1.0M
20260501T12Z_MSC_GDPS_DewPointDepression_IsbL-0650_LatLon0.15_PT024H.grib2 2026-05-01 15:56 1.1M
20260501T12Z_MSC_GDPS_DewPointDepression_IsbL-0700_LatLon0.15_PT024H.grib2 2026-05-01 15:56 1.1M
20260501T12Z_MSC_GDPS_DewPointDepression_IsbL-0750_LatLon0.15_PT024H.grib2 2026-05-01 15:56 1.1M
20260501T12Z_MSC_GDPS_DewPointDepression_IsbL-0800_LatLon0.15_PT024H.grib2 2026-05-01 15:56 1.2M
20260501T12Z_MSC_GDPS_DewPointDepression_IsbL-0850_LatLon0.15_PT024H.grib2 2026-05-01 15:56 1.2M
20260501T12Z_MSC_GDPS_DewPointDepression_IsbL-0875_LatLon0.15_PT024H.grib2 2026-05-01 15:56 1.1M
20260501T12Z_MSC_GDPS_DewPointDepression_IsbL-0900_LatLon0.15_PT024H.grib2 2026-05-01 15:56 1.1M
20260501T12Z_MSC_GDPS_DewPointDepression_IsbL-0925_LatLon0.15_PT024H.grib2 2026-05-01 15:56 1.0M
20260501T12Z_MSC_GDPS_DewPointDepression_IsbL-0950_LatLon0.15_PT024H.grib2 2026-05-01 15:56 1.0M
20260501T12Z_MSC_GDPS_DewPointDepression_IsbL-0970_LatLon0.15_PT024H.grib2 2026-05-01 15:56 1.0M
20260501T12Z_MSC_GDPS_DewPointDepression_IsbL-0985_LatLon0.15_PT024H.grib2 2026-05-01 15:56 1.0M
20260501T12Z_MSC_GDPS_DewPointDepression_IsbL-1000_LatLon0.15_PT024H.grib2 2026-05-01 15:56 1.0M
20260501T12Z_MSC_GDPS_DewPointDepression_IsbL-1015_LatLon0.15_PT024H.grib2 2026-05-01 15:56 913K
20260501T12Z_MSC_GDPS_DewPoint_AGL-2m_LatLon0.15_PT024H.grib2 2026-05-01 15:56 610K
20260501T12Z_MSC_GDPS_DownwardLongwaveRadiationFlux-Accum_Sfc_LatLon0.15_PT024H.grib2 2026-05-01 15:56 1.0M
20260501T12Z_MSC_GDPS_DownwardShortwaveRadiationFlux-Accum_NTAtm_LatLon0.15_PT024H.grib2 2026-05-01 15:56 238K
20260501T12Z_MSC_GDPS_DownwardShortwaveRadiationFlux-Accum_Sfc_LatLon0.15_PT024H.grib2 2026-05-01 15:56 1.2M
20260501T12Z_MSC_GDPS_FreezingRain-Accum12h_Sfc_LatLon0.15_PT024H.grib2 2026-05-01 15:56 102K
20260501T12Z_MSC_GDPS_FreezingRain-Accum1h_Sfc_LatLon0.15_PT024H.grib2 2026-05-01 15:56 53K
20260501T12Z_MSC_GDPS_FreezingRain-Accum24h_Sfc_LatLon0.15_PT024H.grib2 2026-05-01 15:56 141K
20260501T12Z_MSC_GDPS_FreezingRain-Accum3h_Sfc_LatLon0.15_PT024H.grib2 2026-05-01 15:56 62K
20260501T12Z_MSC_GDPS_FreezingRain-Accum6h_Sfc_LatLon0.15_PT024H.grib2 2026-05-01 15:56 79K
20260501T12Z_MSC_GDPS_FreezingRain-Accum_Sfc_LatLon0.15_PT024H.grib2 2026-05-01 15:56 176K
20260501T12Z_MSC_GDPS_GeopotentialHeight_IsbL-0001_LatLon0.15_PT024H.grib2 2026-05-01 15:56 429K
20260501T12Z_MSC_GDPS_GeopotentialHeight_IsbL-0005_LatLon0.15_PT024H.grib2 2026-05-01 15:56 487K
20260501T12Z_MSC_GDPS_GeopotentialHeight_IsbL-0010_LatLon0.15_PT024H.grib2 2026-05-01 15:56 478K
20260501T12Z_MSC_GDPS_GeopotentialHeight_IsbL-0020_LatLon0.15_PT024H.grib2 2026-05-01 15:56 414K
20260501T12Z_MSC_GDPS_GeopotentialHeight_IsbL-0030_LatLon0.15_PT024H.grib2 2026-05-01 15:56 570K
20260501T12Z_MSC_GDPS_GeopotentialHeight_IsbL-0050_LatLon0.15_PT024H.grib2 2026-05-01 15:56 571K
20260501T12Z_MSC_GDPS_GeopotentialHeight_IsbL-0100_LatLon0.15_PT024H.grib2 2026-05-01 15:56 611K
20260501T12Z_MSC_GDPS_GeopotentialHeight_IsbL-0150_LatLon0.15_PT024H.grib2 2026-05-01 15:56 630K
20260501T12Z_MSC_GDPS_GeopotentialHeight_IsbL-0175_LatLon0.15_PT024H.grib2 2026-05-01 15:56 634K
20260501T12Z_MSC_GDPS_GeopotentialHeight_IsbL-0200_LatLon0.15_PT024H.grib2 2026-05-01 15:56 639K
20260501T12Z_MSC_GDPS_GeopotentialHeight_IsbL-0225_LatLon0.15_PT024H.grib2 2026-05-01 15:56 641K
20260501T12Z_MSC_GDPS_GeopotentialHeight_IsbL-0250_LatLon0.15_PT024H.grib2 2026-05-01 15:56 641K
20260501T12Z_MSC_GDPS_GeopotentialHeight_IsbL-0275_LatLon0.15_PT024H.grib2 2026-05-01 15:56 640K
20260501T12Z_MSC_GDPS_GeopotentialHeight_IsbL-0300_LatLon0.15_PT024H.grib2 2026-05-01 15:56 639K
20260501T12Z_MSC_GDPS_GeopotentialHeight_IsbL-0350_LatLon0.15_PT024H.grib2 2026-05-01 15:56 630K
20260501T12Z_MSC_GDPS_GeopotentialHeight_IsbL-0400_LatLon0.15_PT024H.grib2 2026-05-01 15:56 621K
20260501T12Z_MSC_GDPS_GeopotentialHeight_IsbL-0450_LatLon0.15_PT024H.grib2 2026-05-01 15:56 611K
20260501T12Z_MSC_GDPS_GeopotentialHeight_IsbL-0500_LatLon0.15_PT024H.grib2 2026-05-01 15:56 534K
20260501T12Z_MSC_GDPS_GeopotentialHeight_IsbL-0550_LatLon0.15_PT024H.grib2 2026-05-01 15:56 527K
20260501T12Z_MSC_GDPS_GeopotentialHeight_IsbL-0600_LatLon0.15_PT024H.grib2 2026-05-01 15:56 523K
20260501T12Z_MSC_GDPS_GeopotentialHeight_IsbL-0650_LatLon0.15_PT024H.grib2 2026-05-01 15:56 692K
20260501T12Z_MSC_GDPS_GeopotentialHeight_IsbL-0700_LatLon0.15_PT024H.grib2 2026-05-01 15:56 694K
20260501T12Z_MSC_GDPS_GeopotentialHeight_IsbL-0750_LatLon0.15_PT024H.grib2 2026-05-01 15:56 694K
20260501T12Z_MSC_GDPS_GeopotentialHeight_IsbL-0800_LatLon0.15_PT024H.grib2 2026-05-01 15:56 709K
20260501T12Z_MSC_GDPS_GeopotentialHeight_IsbL-0850_LatLon0.15_PT024H.grib2 2026-05-01 15:56 714K
20260501T12Z_MSC_GDPS_GeopotentialHeight_IsbL-0875_LatLon0.15_PT024H.grib2 2026-05-01 15:56 719K
20260501T12Z_MSC_GDPS_GeopotentialHeight_IsbL-0900_LatLon0.15_PT024H.grib2 2026-05-01 15:56 728K
20260501T12Z_MSC_GDPS_GeopotentialHeight_IsbL-0925_LatLon0.15_PT024H.grib2 2026-05-01 15:56 737K
20260501T12Z_MSC_GDPS_GeopotentialHeight_IsbL-0950_LatLon0.15_PT024H.grib2 2026-05-01 15:56 744K
20260501T12Z_MSC_GDPS_GeopotentialHeight_IsbL-0970_LatLon0.15_PT024H.grib2 2026-05-01 15:56 754K
20260501T12Z_MSC_GDPS_GeopotentialHeight_IsbL-0985_LatLon0.15_PT024H.grib2 2026-05-01 15:56 770K
20260501T12Z_MSC_GDPS_GeopotentialHeight_IsbL-1000_LatLon0.15_PT024H.grib2 2026-05-01 15:56 792K
20260501T12Z_MSC_GDPS_GeopotentialHeight_IsbL-1015_LatLon0.15_PT024H.grib2 2026-05-01 15:56 813K
20260501T12Z_MSC_GDPS_Humidex_Sfc_LatLon0.15_PT024H.grib2 2026-05-01 15:56 5.3M
20260501T12Z_MSC_GDPS_IcePellets-Accum12h_Sfc_LatLon0.15_PT024H.grib2 2026-05-01 15:56 17K
20260501T12Z_MSC_GDPS_IcePellets-Accum1h_Sfc_LatLon0.15_PT024H.grib2 2026-05-01 15:56 12K
20260501T12Z_MSC_GDPS_IcePellets-Accum24h_Sfc_LatLon0.15_PT024H.grib2 2026-05-01 15:56 31K
20260501T12Z_MSC_GDPS_IcePellets-Accum3h_Sfc_LatLon0.15_PT024H.grib2 2026-05-01 15:56 13K
20260501T12Z_MSC_GDPS_IcePellets-Accum6h_Sfc_LatLon0.15_PT024H.grib2 2026-05-01 15:56 15K
20260501T12Z_MSC_GDPS_IcePellets-Accum_Sfc_LatLon0.15_PT024H.grib2 2026-05-01 15:56 32K
20260501T12Z_MSC_GDPS_KIndex_Sfc_LatLon0.15_PT024H.grib2 2026-05-01 15:56 6.4M
20260501T12Z_MSC_GDPS_LatentHeatNetFlux_Sfc_LatLon0.15_PT024H.grib2 2026-05-01 15:56 729K
20260501T12Z_MSC_GDPS_LiftedIndex-MU-VT_IsbL-0500_LatLon0.15_PT024H.grib2 2026-05-01 15:56 5.4M
20260501T12Z_MSC_GDPS_NetLongwaveRadiationFlux-Accum_Sfc_LatLon0.15_PT024H.grib2 2026-05-01 15:56 1.2M
20260501T12Z_MSC_GDPS_NetShortwaveRadiationFlux-Accum_Sfc_LatLon0.15_PT024H.grib2 2026-05-01 15:56 1.1M
20260501T12Z_MSC_GDPS_O3MixingRatio_Sfc_LatLon0.15_PT024H.grib2 2026-05-01 16:44 2.4M
20260501T12Z_MSC_GDPS_O3_EAtm_LatLon0.15_PT024H.grib2 2026-05-01 16:44 2.5M
20260501T12Z_MSC_GDPS_PlanetaryBoundaryLayerHeight_Sfc_LatLon0.15_PT024H.grib2 2026-05-01 15:56 2.5M
20260501T12Z_MSC_GDPS_Precip-Accum12h_Sfc_LatLon0.15_PT024H.grib2 2026-05-01 15:56 4.0M
20260501T12Z_MSC_GDPS_Precip-Accum1h_Sfc_LatLon0.15_PT024H.grib2 2026-05-01 15:56 3.2M
20260501T12Z_MSC_GDPS_Precip-Accum24h_Sfc_LatLon0.15_PT024H.grib2 2026-05-01 15:56 4.5M
20260501T12Z_MSC_GDPS_Precip-Accum3h_Sfc_LatLon0.15_PT024H.grib2 2026-05-01 15:56 3.5M
20260501T12Z_MSC_GDPS_Precip-Accum6h_Sfc_LatLon0.15_PT024H.grib2 2026-05-01 15:56 3.9M
20260501T12Z_MSC_GDPS_Precip-Accum_Sfc_LatLon0.15_PT024H.grib2 2026-05-01 15:56 4.3M
20260501T12Z_MSC_GDPS_PrecipRate_Sfc_LatLon0.15_PT024H.grib2 2026-05-01 15:56 3.0M
20260501T12Z_MSC_GDPS_PrecipType-Instant_Sfc_LatLon0.15_PT024H.grib2 2026-05-01 15:56 1.6M
20260501T12Z_MSC_GDPS_Pressure_MSL_LatLon0.15_PT024H.grib2 2026-05-01 15:56 826K
20260501T12Z_MSC_GDPS_Pressure_PVU-1.5_LatLon0.15_PT024H.grib2 2026-05-01 15:56 5.8M
20260501T12Z_MSC_GDPS_Pressure_PVU-1_LatLon0.15_PT024H.grib2 2026-05-01 15:56 6.0M
20260501T12Z_MSC_GDPS_Pressure_PVU-2_LatLon0.15_PT024H.grib2 2026-05-01 15:56 5.6M
20260501T12Z_MSC_GDPS_Pressure_Sfc_LatLon0.15_PT024H.grib2 2026-05-01 15:56 1.1M
20260501T12Z_MSC_GDPS_RadiativeTemp_Sfc_LatLon0.15_PT024H.grib2 2026-05-01 15:56 499K
20260501T12Z_MSC_GDPS_Rain-Accum12h_Sfc_LatLon0.15_PT024H.grib2 2026-05-01 15:56 2.7M
20260501T12Z_MSC_GDPS_Rain-Accum1h_Sfc_LatLon0.15_PT024H.grib2 2026-05-01 15:56 1.7M
20260501T12Z_MSC_GDPS_Rain-Accum24h_Sfc_LatLon0.15_PT024H.grib2 2026-05-01 15:56 3.2M
20260501T12Z_MSC_GDPS_Rain-Accum3h_Sfc_LatLon0.15_PT024H.grib2 2026-05-01 15:56 1.9M
20260501T12Z_MSC_GDPS_Rain-Accum6h_Sfc_LatLon0.15_PT024H.grib2 2026-05-01 15:56 2.5M
20260501T12Z_MSC_GDPS_Rain-Accum_Sfc_LatLon0.15_PT024H.grib2 2026-05-01 15:56 3.2M
20260501T12Z_MSC_GDPS_RelativeHumidity_AGL-2m_LatLon0.15_PT024H.grib2 2026-05-01 15:56 1.0M
20260501T12Z_MSC_GDPS_RelativeHumidity_IsbL-0010_LatLon0.15_PT024H.grib2 2026-05-01 15:56 204K
20260501T12Z_MSC_GDPS_RelativeHumidity_IsbL-0020_LatLon0.15_PT024H.grib2 2026-05-01 15:56 171K
20260501T12Z_MSC_GDPS_RelativeHumidity_IsbL-0030_LatLon0.15_PT024H.grib2 2026-05-01 15:56 270K
20260501T12Z_MSC_GDPS_RelativeHumidity_IsbL-0050_LatLon0.15_PT024H.grib2 2026-05-01 15:56 333K
20260501T12Z_MSC_GDPS_RelativeHumidity_IsbL-0100_LatLon0.15_PT024H.grib2 2026-05-01 15:56 518K
20260501T12Z_MSC_GDPS_RelativeHumidity_IsbL-0150_LatLon0.15_PT024H.grib2 2026-05-01 15:56 661K
20260501T12Z_MSC_GDPS_RelativeHumidity_IsbL-0175_LatLon0.15_PT024H.grib2 2026-05-01 15:56 778K
20260501T12Z_MSC_GDPS_RelativeHumidity_IsbL-0200_LatLon0.15_PT024H.grib2 2026-05-01 15:56 697K
20260501T12Z_MSC_GDPS_RelativeHumidity_IsbL-0225_LatLon0.15_PT024H.grib2 2026-05-01 15:56 788K
20260501T12Z_MSC_GDPS_RelativeHumidity_IsbL-0250_LatLon0.15_PT024H.grib2 2026-05-01 15:56 866K
20260501T12Z_MSC_GDPS_RelativeHumidity_IsbL-0275_LatLon0.15_PT024H.grib2 2026-05-01 15:56 888K
20260501T12Z_MSC_GDPS_RelativeHumidity_IsbL-0300_LatLon0.15_PT024H.grib2 2026-05-01 15:56 932K
20260501T12Z_MSC_GDPS_RelativeHumidity_IsbL-0350_LatLon0.15_PT024H.grib2 2026-05-01 15:56 948K
20260501T12Z_MSC_GDPS_RelativeHumidity_IsbL-0400_LatLon0.15_PT024H.grib2 2026-05-01 15:56 969K
20260501T12Z_MSC_GDPS_RelativeHumidity_IsbL-0450_LatLon0.15_PT024H.grib2 2026-05-01 15:56 1.0M
20260501T12Z_MSC_GDPS_RelativeHumidity_IsbL-0500_LatLon0.15_PT024H.grib2 2026-05-01 15:56 1.0M
20260501T12Z_MSC_GDPS_RelativeHumidity_IsbL-0550_LatLon0.15_PT024H.grib2 2026-05-01 15:56 1.1M
20260501T12Z_MSC_GDPS_RelativeHumidity_IsbL-0600_LatLon0.15_PT024H.grib2 2026-05-01 15:56 1.1M
20260501T12Z_MSC_GDPS_RelativeHumidity_IsbL-0650_LatLon0.15_PT024H.grib2 2026-05-01 15:56 1.1M
20260501T12Z_MSC_GDPS_RelativeHumidity_IsbL-0700_LatLon0.15_PT024H.grib2 2026-05-01 15:56 1.2M
20260501T12Z_MSC_GDPS_RelativeHumidity_IsbL-0750_LatLon0.15_PT024H.grib2 2026-05-01 15:56 1.2M
20260501T12Z_MSC_GDPS_RelativeHumidity_IsbL-0800_LatLon0.15_PT024H.grib2 2026-05-01 15:56 1.3M
20260501T12Z_MSC_GDPS_RelativeHumidity_IsbL-0850_LatLon0.15_PT024H.grib2 2026-05-01 15:56 1.3M
20260501T12Z_MSC_GDPS_RelativeHumidity_IsbL-0875_LatLon0.15_PT024H.grib2 2026-05-01 15:56 1.3M
20260501T12Z_MSC_GDPS_RelativeHumidity_IsbL-0900_LatLon0.15_PT024H.grib2 2026-05-01 15:56 1.3M
20260501T12Z_MSC_GDPS_RelativeHumidity_IsbL-0925_LatLon0.15_PT024H.grib2 2026-05-01 15:56 1.2M
20260501T12Z_MSC_GDPS_RelativeHumidity_IsbL-0950_LatLon0.15_PT024H.grib2 2026-05-01 15:56 1.2M
20260501T12Z_MSC_GDPS_RelativeHumidity_IsbL-0970_LatLon0.15_PT024H.grib2 2026-05-01 15:56 1.2M
20260501T12Z_MSC_GDPS_RelativeHumidity_IsbL-0985_LatLon0.15_PT024H.grib2 2026-05-01 15:56 1.1M
20260501T12Z_MSC_GDPS_RelativeHumidity_IsbL-1000_LatLon0.15_PT024H.grib2 2026-05-01 15:56 1.1M
20260501T12Z_MSC_GDPS_RelativeHumidity_IsbL-1015_LatLon0.15_PT024H.grib2 2026-05-01 15:56 1.0M
20260501T12Z_MSC_GDPS_RelativeVorticity_IsbL-0200_LatLon0.15_PT024H.grib2 2026-05-01 15:56 1.5M
20260501T12Z_MSC_GDPS_RelativeVorticity_IsbL-0250_LatLon0.15_PT024H.grib2 2026-05-01 15:56 1.6M
20260501T12Z_MSC_GDPS_RelativeVorticity_IsbL-0500_LatLon0.15_PT024H.grib2 2026-05-01 15:56 1.5M
20260501T12Z_MSC_GDPS_RelativeVorticity_IsbL-0700_LatLon0.15_PT024H.grib2 2026-05-01 15:56 1.3M
20260501T12Z_MSC_GDPS_RelativeVorticity_IsbL-0850_LatLon0.15_PT024H.grib2 2026-05-01 15:56 1.6M
20260501T12Z_MSC_GDPS_Runoff-Accum_Sfc_LatLon0.15_PT024H.grib2 2026-05-01 15:56 120K
20260501T12Z_MSC_GDPS_SensibleHeatNetFlux_Sfc_LatLon0.15_PT024H.grib2 2026-05-01 15:56 654K
20260501T12Z_MSC_GDPS_ShowalterIndex_IsbL-0500_LatLon0.15_PT024H.grib2 2026-05-01 15:56 6.2M
20260501T12Z_MSC_GDPS_Snow-Accum12h_Sfc_LatLon0.15_PT024H.grib2 2026-05-01 15:56 1.3M
20260501T12Z_MSC_GDPS_Snow-Accum1h_Sfc_LatLon0.15_PT024H.grib2 2026-05-01 15:56 1.0M
20260501T12Z_MSC_GDPS_Snow-Accum24h_Sfc_LatLon0.15_PT024H.grib2 2026-05-01 15:56 1.4M
20260501T12Z_MSC_GDPS_Snow-Accum3h_Sfc_LatLon0.15_PT024H.grib2 2026-05-01 15:56 1.1M
20260501T12Z_MSC_GDPS_Snow-Accum6h_Sfc_LatLon0.15_PT024H.grib2 2026-05-01 15:56 1.3M
20260501T12Z_MSC_GDPS_Snow-Accum_Sfc_LatLon0.15_PT024H.grib2 2026-05-01 15:56 1.7M
20260501T12Z_MSC_GDPS_SnowDensity_Sfc_LatLon0.15_PT024H.grib2 2026-05-01 15:56 255K
20260501T12Z_MSC_GDPS_SnowDepth_Sfc_LatLon0.15_PT024H.grib2 2026-05-01 15:56 1.7M
20260501T12Z_MSC_GDPS_SoilTemp_DBS-0to10cm_LatLon0.15_PT024H.grib2 2026-05-01 15:56 500K
20260501T12Z_MSC_GDPS_SoilTemp_Sfc_LatLon0.15_PT024H.grib2 2026-05-01 15:56 569K
20260501T12Z_MSC_GDPS_SoilVolumetricIceContent_Sfc_LatLon0.15_PT024H.grib2 2026-05-01 15:56 202K
20260501T12Z_MSC_GDPS_SoilVolumetricWaterContent_DBS-0to10cm_LatLon0.15_PT024H.grib2 2026-05-01 15:56 587K
20260501T12Z_MSC_GDPS_SoilVolumetricWaterContent_DBS-0to1cm_LatLon0.15_PT024H.grib2 2026-05-01 15:56 649K
20260501T12Z_MSC_GDPS_SpecificHumidity_AGL-120m_LatLon0.15_PT024H.grib2 2026-05-01 15:56 1.1M
20260501T12Z_MSC_GDPS_SpecificHumidity_AGL-2m_LatLon0.15_PT024H.grib2 2026-05-01 15:56 1.2M
20260501T12Z_MSC_GDPS_SpecificHumidity_AGL-40m_LatLon0.15_PT024H.grib2 2026-05-01 15:56 1.1M
20260501T12Z_MSC_GDPS_SpecificHumidity_AGL-80m_LatLon0.15_PT024H.grib2 2026-05-01 15:56 1.1M
20260501T12Z_MSC_GDPS_SpecificHumidity_IsbL-0001_LatLon0.15_PT024H.grib2 2026-05-01 15:56 1.4M
20260501T12Z_MSC_GDPS_SpecificHumidity_IsbL-0005_LatLon0.15_PT024H.grib2 2026-05-01 15:56 1.3M
20260501T12Z_MSC_GDPS_SpecificHumidity_IsbL-0010_LatLon0.15_PT024H.grib2 2026-05-01 15:56 1.4M
20260501T12Z_MSC_GDPS_SpecificHumidity_IsbL-0020_LatLon0.15_PT024H.grib2 2026-05-01 15:56 1.4M
20260501T12Z_MSC_GDPS_SpecificHumidity_IsbL-0030_LatLon0.15_PT024H.grib2 2026-05-01 15:56 1.4M
20260501T12Z_MSC_GDPS_SpecificHumidity_IsbL-0050_LatLon0.15_PT024H.grib2 2026-05-01 15:56 1.7M
20260501T12Z_MSC_GDPS_SpecificHumidity_IsbL-0100_LatLon0.15_PT024H.grib2 2026-05-01 15:56 1.4M
20260501T12Z_MSC_GDPS_SpecificHumidity_IsbL-0150_LatLon0.15_PT024H.grib2 2026-05-01 15:56 1.3M
20260501T12Z_MSC_GDPS_SpecificHumidity_IsbL-0175_LatLon0.15_PT024H.grib2 2026-05-01 15:56 1.2M
20260501T12Z_MSC_GDPS_SpecificHumidity_IsbL-0200_LatLon0.15_PT024H.grib2 2026-05-01 15:56 1.3M
20260501T12Z_MSC_GDPS_SpecificHumidity_IsbL-0225_LatLon0.15_PT024H.grib2 2026-05-01 15:56 1.3M
20260501T12Z_MSC_GDPS_SpecificHumidity_IsbL-0250_LatLon0.15_PT024H.grib2 2026-05-01 15:56 1.4M
20260501T12Z_MSC_GDPS_SpecificHumidity_IsbL-0275_LatLon0.15_PT024H.grib2 2026-05-01 15:56 1.3M
20260501T12Z_MSC_GDPS_SpecificHumidity_IsbL-0300_LatLon0.15_PT024H.grib2 2026-05-01 15:56 1.2M
20260501T12Z_MSC_GDPS_SpecificHumidity_IsbL-0350_LatLon0.15_PT024H.grib2 2026-05-01 15:56 1.2M
20260501T12Z_MSC_GDPS_SpecificHumidity_IsbL-0400_LatLon0.15_PT024H.grib2 2026-05-01 15:56 1.4M
20260501T12Z_MSC_GDPS_SpecificHumidity_IsbL-0450_LatLon0.15_PT024H.grib2 2026-05-01 15:56 1.6M
20260501T12Z_MSC_GDPS_SpecificHumidity_IsbL-0500_LatLon0.15_PT024H.grib2 2026-05-01 15:56 1.4M
20260501T12Z_MSC_GDPS_SpecificHumidity_IsbL-0550_LatLon0.15_PT024H.grib2 2026-05-01 15:56 1.6M
20260501T12Z_MSC_GDPS_SpecificHumidity_IsbL-0600_LatLon0.15_PT024H.grib2 2026-05-01 15:56 1.7M
20260501T12Z_MSC_GDPS_SpecificHumidity_IsbL-0650_LatLon0.15_PT024H.grib2 2026-05-01 15:56 1.5M
20260501T12Z_MSC_GDPS_SpecificHumidity_IsbL-0700_LatLon0.15_PT024H.grib2 2026-05-01 15:56 1.6M
20260501T12Z_MSC_GDPS_SpecificHumidity_IsbL-0750_LatLon0.15_PT024H.grib2 2026-05-01 15:56 1.7M
20260501T12Z_MSC_GDPS_SpecificHumidity_IsbL-0800_LatLon0.15_PT024H.grib2 2026-05-01 15:56 1.9M
20260501T12Z_MSC_GDPS_SpecificHumidity_IsbL-0850_LatLon0.15_PT024H.grib2 2026-05-01 15:56 1.9M
20260501T12Z_MSC_GDPS_SpecificHumidity_IsbL-0875_LatLon0.15_PT024H.grib2 2026-05-01 15:56 1.9M
20260501T12Z_MSC_GDPS_SpecificHumidity_IsbL-0900_LatLon0.15_PT024H.grib2 2026-05-01 15:56 1.6M
20260501T12Z_MSC_GDPS_SpecificHumidity_IsbL-0925_LatLon0.15_PT024H.grib2 2026-05-01 15:56 1.6M
20260501T12Z_MSC_GDPS_SpecificHumidity_IsbL-0950_LatLon0.15_PT024H.grib2 2026-05-01 15:56 1.6M
20260501T12Z_MSC_GDPS_SpecificHumidity_IsbL-0970_LatLon0.15_PT024H.grib2 2026-05-01 15:56 1.6M
20260501T12Z_MSC_GDPS_SpecificHumidity_IsbL-0985_LatLon0.15_PT024H.grib2 2026-05-01 15:56 1.5M
20260501T12Z_MSC_GDPS_SpecificHumidity_IsbL-1000_LatLon0.15_PT024H.grib2 2026-05-01 15:56 1.5M
20260501T12Z_MSC_GDPS_SpecificHumidity_IsbL-1015_LatLon0.15_PT024H.grib2 2026-05-01 15:56 1.5M
20260501T12Z_MSC_GDPS_SpecificHumidity_Sfc_LatLon0.15_PT024H.grib2 2026-05-01 15:56 675K
20260501T12Z_MSC_GDPS_Thickness_IsbL-0850to0700_LatLon0.15_PT024H.grib2 2026-05-01 15:56 472K
20260501T12Z_MSC_GDPS_Thickness_IsbL-1000to0500_LatLon0.15_PT024H.grib2 2026-05-01 15:56 373K
20260501T12Z_MSC_GDPS_Thickness_IsbL-1000to0850_LatLon0.15_PT024H.grib2 2026-05-01 15:56 492K
20260501T12Z_MSC_GDPS_TotalCloudCover_Sfc_LatLon0.15_PT024H.grib2 2026-05-01 15:56 835K
20260501T12Z_MSC_GDPS_TotalTotalsIndex_Sfc_LatLon0.15_PT024H.grib2 2026-05-01 15:56 6.2M
20260501T12Z_MSC_GDPS_UVIndex-ClearSky_Sfc_LatLon0.15_PT024H.grib2 2026-05-01 16:44 1.0M
20260501T12Z_MSC_GDPS_UVIndex_Sfc_LatLon0.15_PT024H.grib2 2026-05-01 16:44 1.4M
20260501T12Z_MSC_GDPS_UpwardLongwaveRadiationFlux_NTAtm_LatLon0.15_PT024H.grib2 2026-05-01 15:56 844K
20260501T12Z_MSC_GDPS_VerticalVelocity_IsbL-0200_LatLon0.15_PT024H.grib2 2026-05-01 15:56 1.2M
20260501T12Z_MSC_GDPS_VerticalVelocity_IsbL-0250_LatLon0.15_PT024H.grib2 2026-05-01 15:56 1.0M
20260501T12Z_MSC_GDPS_VerticalVelocity_IsbL-0500_LatLon0.15_PT024H.grib2 2026-05-01 15:56 1.3M
20260501T12Z_MSC_GDPS_VerticalVelocity_IsbL-0600_LatLon0.15_PT024H.grib2 2026-05-01 15:56 1.1M
20260501T12Z_MSC_GDPS_VerticalVelocity_IsbL-0700_LatLon0.15_PT024H.grib2 2026-05-01 15:56 1.1M
20260501T12Z_MSC_GDPS_VerticalVelocity_IsbL-0850_LatLon0.15_PT024H.grib2 2026-05-01 15:56 1.4M
20260501T12Z_MSC_GDPS_WindChill_Sfc_LatLon0.15_PT024H.grib2 2026-05-01 15:56 5.3M
20260501T12Z_MSC_GDPS_WindDir_AGL-10m_LatLon0.15_PT024H.grib2 2026-05-01 15:56 1.3M
20260501T12Z_MSC_GDPS_WindDir_AGL-120m_LatLon0.15_PT024H.grib2 2026-05-01 15:56 1.3M
20260501T12Z_MSC_GDPS_WindDir_AGL-40m_LatLon0.15_PT024H.grib2 2026-05-01 15:56 1.4M
20260501T12Z_MSC_GDPS_WindDir_AGL-80m_LatLon0.15_PT024H.grib2 2026-05-01 15:56 1.4M
20260501T12Z_MSC_GDPS_WindDir_IsbL-0001_LatLon0.15_PT024H.grib2 2026-05-01 15:56 669K
20260501T12Z_MSC_GDPS_WindDir_IsbL-0005_LatLon0.15_PT024H.grib2 2026-05-01 15:56 807K
20260501T12Z_MSC_GDPS_WindDir_IsbL-0010_LatLon0.15_PT024H.grib2 2026-05-01 15:56 842K
20260501T12Z_MSC_GDPS_WindDir_IsbL-0020_LatLon0.15_PT024H.grib2 2026-05-01 15:56 965K
20260501T12Z_MSC_GDPS_WindDir_IsbL-0030_LatLon0.15_PT024H.grib2 2026-05-01 15:56 940K
20260501T12Z_MSC_GDPS_WindDir_IsbL-0050_LatLon0.15_PT024H.grib2 2026-05-01 15:56 950K
20260501T12Z_MSC_GDPS_WindDir_IsbL-0100_LatLon0.15_PT024H.grib2 2026-05-01 15:56 1.0M
20260501T12Z_MSC_GDPS_WindDir_IsbL-0150_LatLon0.15_PT024H.grib2 2026-05-01 15:56 1.0M
20260501T12Z_MSC_GDPS_WindDir_IsbL-0175_LatLon0.15_PT024H.grib2 2026-05-01 15:56 1.0M
20260501T12Z_MSC_GDPS_WindDir_IsbL-0200_LatLon0.15_PT024H.grib2 2026-05-01 15:56 1.1M
20260501T12Z_MSC_GDPS_WindDir_IsbL-0225_LatLon0.15_PT024H.grib2 2026-05-01 15:56 1.1M
20260501T12Z_MSC_GDPS_WindDir_IsbL-0250_LatLon0.15_PT024H.grib2 2026-05-01 15:56 1.1M
20260501T12Z_MSC_GDPS_WindDir_IsbL-0275_LatLon0.15_PT024H.grib2 2026-05-01 15:56 1.2M
20260501T12Z_MSC_GDPS_WindDir_IsbL-0300_LatLon0.15_PT024H.grib2 2026-05-01 15:56 1.2M
20260501T12Z_MSC_GDPS_WindDir_IsbL-0350_LatLon0.15_PT024H.grib2 2026-05-01 15:56 1.2M
20260501T12Z_MSC_GDPS_WindDir_IsbL-0400_LatLon0.15_PT024H.grib2 2026-05-01 15:56 1.3M
20260501T12Z_MSC_GDPS_WindDir_IsbL-0450_LatLon0.15_PT024H.grib2 2026-05-01 15:56 1.3M
20260501T12Z_MSC_GDPS_WindDir_IsbL-0500_LatLon0.15_PT024H.grib2 2026-05-01 15:56 1.3M
20260501T12Z_MSC_GDPS_WindDir_IsbL-0550_LatLon0.15_PT024H.grib2 2026-05-01 15:56 1.4M
20260501T12Z_MSC_GDPS_WindDir_IsbL-0600_LatLon0.15_PT024H.grib2 2026-05-01 15:56 1.4M
20260501T12Z_MSC_GDPS_WindDir_IsbL-0650_LatLon0.15_PT024H.grib2 2026-05-01 15:56 1.5M
20260501T12Z_MSC_GDPS_WindDir_IsbL-0700_LatLon0.15_PT024H.grib2 2026-05-01 15:56 1.6M
20260501T12Z_MSC_GDPS_WindDir_IsbL-0750_LatLon0.15_PT024H.grib2 2026-05-01 15:56 1.7M
20260501T12Z_MSC_GDPS_WindDir_IsbL-0800_LatLon0.15_PT024H.grib2 2026-05-01 15:56 1.8M
20260501T12Z_MSC_GDPS_WindDir_IsbL-0850_LatLon0.15_PT024H.grib2 2026-05-01 15:56 1.9M
20260501T12Z_MSC_GDPS_WindDir_IsbL-0875_LatLon0.15_PT024H.grib2 2026-05-01 15:56 2.0M
20260501T12Z_MSC_GDPS_WindDir_IsbL-0900_LatLon0.15_PT024H.grib2 2026-05-01 15:56 2.0M
20260501T12Z_MSC_GDPS_WindDir_IsbL-0925_LatLon0.15_PT024H.grib2 2026-05-01 15:56 2.0M
20260501T12Z_MSC_GDPS_WindDir_IsbL-0950_LatLon0.15_PT024H.grib2 2026-05-01 15:56 2.0M
20260501T12Z_MSC_GDPS_WindDir_IsbL-0970_LatLon0.15_PT024H.grib2 2026-05-01 15:56 2.0M
20260501T12Z_MSC_GDPS_WindDir_IsbL-0985_LatLon0.15_PT024H.grib2 2026-05-01 15:56 2.0M
20260501T12Z_MSC_GDPS_WindDir_IsbL-1000_LatLon0.15_PT024H.grib2 2026-05-01 15:56 2.0M
20260501T12Z_MSC_GDPS_WindDir_IsbL-1015_LatLon0.15_PT024H.grib2 2026-05-01 15:56 2.0M
20260501T12Z_MSC_GDPS_WindGust-Max_AGL-10m_LatLon0.15_PT024H.grib2 2026-05-01 15:56 1.8M
20260501T12Z_MSC_GDPS_WindGust-Min_AGL-10m_LatLon0.15_PT024H.grib2 2026-05-01 15:56 2.1M
20260501T12Z_MSC_GDPS_WindGust_AGL-10m_LatLon0.15_PT024H.grib2 2026-05-01 15:56 2.1M
20260501T12Z_MSC_GDPS_WindSpeed_AGL-10m_LatLon0.15_PT024H.grib2 2026-05-01 15:56 1.1M
20260501T12Z_MSC_GDPS_WindSpeed_AGL-120m_LatLon0.15_PT024H.grib2 2026-05-01 15:56 1.2M
20260501T12Z_MSC_GDPS_WindSpeed_AGL-40m_LatLon0.15_PT024H.grib2 2026-05-01 15:56 1.2M
20260501T12Z_MSC_GDPS_WindSpeed_AGL-80m_LatLon0.15_PT024H.grib2 2026-05-01 15:56 1.2M
20260501T12Z_MSC_GDPS_WindSpeed_IsbL-0001_LatLon0.15_PT024H.grib2 2026-05-01 15:56 641K
20260501T12Z_MSC_GDPS_WindSpeed_IsbL-0005_LatLon0.15_PT024H.grib2 2026-05-01 15:56 695K
20260501T12Z_MSC_GDPS_WindSpeed_IsbL-0010_LatLon0.15_PT024H.grib2 2026-05-01 15:56 630K
20260501T12Z_MSC_GDPS_WindSpeed_IsbL-0020_LatLon0.15_PT024H.grib2 2026-05-01 15:56 669K
20260501T12Z_MSC_GDPS_WindSpeed_IsbL-0030_LatLon0.15_PT024H.grib2 2026-05-01 15:56 867K
20260501T12Z_MSC_GDPS_WindSpeed_IsbL-0050_LatLon0.15_PT024H.grib2 2026-05-01 15:56 907K
20260501T12Z_MSC_GDPS_WindSpeed_IsbL-0100_LatLon0.15_PT024H.grib2 2026-05-01 15:56 1.1M
20260501T12Z_MSC_GDPS_WindSpeed_IsbL-0150_LatLon0.15_PT024H.grib2 2026-05-01 15:56 944K
20260501T12Z_MSC_GDPS_WindSpeed_IsbL-0175_LatLon0.15_PT024H.grib2 2026-05-01 15:56 1.0M
20260501T12Z_MSC_GDPS_WindSpeed_IsbL-0200_LatLon0.15_PT024H.grib2 2026-05-01 15:56 1.1M
20260501T12Z_MSC_GDPS_WindSpeed_IsbL-0225_LatLon0.15_PT024H.grib2 2026-05-01 15:56 1.1M
20260501T12Z_MSC_GDPS_WindSpeed_IsbL-0250_LatLon0.15_PT024H.grib2 2026-05-01 15:56 1.1M
20260501T12Z_MSC_GDPS_WindSpeed_IsbL-0275_LatLon0.15_PT024H.grib2 2026-05-01 15:56 1.1M
20260501T12Z_MSC_GDPS_WindSpeed_IsbL-0300_LatLon0.15_PT024H.grib2 2026-05-01 15:56 1.1M
20260501T12Z_MSC_GDPS_WindSpeed_IsbL-0350_LatLon0.15_PT024H.grib2 2026-05-01 15:56 1.1M
20260501T12Z_MSC_GDPS_WindSpeed_IsbL-0400_LatLon0.15_PT024H.grib2 2026-05-01 15:56 1.1M
20260501T12Z_MSC_GDPS_WindSpeed_IsbL-0450_LatLon0.15_PT024H.grib2 2026-05-01 15:56 1.1M
20260501T12Z_MSC_GDPS_WindSpeed_IsbL-0500_LatLon0.15_PT024H.grib2 2026-05-01 15:56 1.1M
20260501T12Z_MSC_GDPS_WindSpeed_IsbL-0550_LatLon0.15_PT024H.grib2 2026-05-01 15:56 1.1M
20260501T12Z_MSC_GDPS_WindSpeed_IsbL-0600_LatLon0.15_PT024H.grib2 2026-05-01 15:56 1.1M
20260501T12Z_MSC_GDPS_WindSpeed_IsbL-0650_LatLon0.15_PT024H.grib2 2026-05-01 15:56 1.5M
20260501T12Z_MSC_GDPS_WindSpeed_IsbL-0700_LatLon0.15_PT024H.grib2 2026-05-01 15:56 1.5M
20260501T12Z_MSC_GDPS_WindSpeed_IsbL-0750_LatLon0.15_PT024H.grib2 2026-05-01 15:56 1.6M
20260501T12Z_MSC_GDPS_WindSpeed_IsbL-0800_LatLon0.15_PT024H.grib2 2026-05-01 15:56 1.4M
20260501T12Z_MSC_GDPS_WindSpeed_IsbL-0850_LatLon0.15_PT024H.grib2 2026-05-01 15:56 1.4M
20260501T12Z_MSC_GDPS_WindSpeed_IsbL-0875_LatLon0.15_PT024H.grib2 2026-05-01 15:56 1.5M
20260501T12Z_MSC_GDPS_WindSpeed_IsbL-0900_LatLon0.15_PT024H.grib2 2026-05-01 15:56 1.8M
20260501T12Z_MSC_GDPS_WindSpeed_IsbL-0925_LatLon0.15_PT024H.grib2 2026-05-01 15:56 1.8M
20260501T12Z_MSC_GDPS_WindSpeed_IsbL-0950_LatLon0.15_PT024H.grib2 2026-05-01 15:56 1.8M
20260501T12Z_MSC_GDPS_WindSpeed_IsbL-0970_LatLon0.15_PT024H.grib2 2026-05-01 15:56 1.8M
20260501T12Z_MSC_GDPS_WindSpeed_IsbL-0985_LatLon0.15_PT024H.grib2 2026-05-01 15:56 1.9M
20260501T12Z_MSC_GDPS_WindSpeed_IsbL-1000_LatLon0.15_PT024H.grib2 2026-05-01 15:56 1.9M
20260501T12Z_MSC_GDPS_WindSpeed_IsbL-1015_LatLon0.15_PT024H.grib2 2026-05-01 15:56 1.8M
20260501T12Z_MSC_GDPS_WindU_AGL-10m_LatLon0.15_PT024H.grib2 2026-05-01 15:56 1.3M
20260501T12Z_MSC_GDPS_WindU_AGL-120m_LatLon0.15_PT024H.grib2 2026-05-01 15:56 1.0M
20260501T12Z_MSC_GDPS_WindU_AGL-40m_LatLon0.15_PT024H.grib2 2026-05-01 15:56 1.0M
20260501T12Z_MSC_GDPS_WindU_AGL-80m_LatLon0.15_PT024H.grib2 2026-05-01 15:56 1.0M
20260501T12Z_MSC_GDPS_WindU_IsbL-0001_LatLon0.15_PT024H.grib2 2026-05-01 15:56 502K
20260501T12Z_MSC_GDPS_WindU_IsbL-0005_LatLon0.15_PT024H.grib2 2026-05-01 15:56 694K
20260501T12Z_MSC_GDPS_WindU_IsbL-0010_LatLon0.15_PT024H.grib2 2026-05-01 15:56 705K
20260501T12Z_MSC_GDPS_WindU_IsbL-0020_LatLon0.15_PT024H.grib2 2026-05-01 15:56 734K
20260501T12Z_MSC_GDPS_WindU_IsbL-0030_LatLon0.15_PT024H.grib2 2026-05-01 15:56 741K
20260501T12Z_MSC_GDPS_WindU_IsbL-0050_LatLon0.15_PT024H.grib2 2026-05-01 15:56 769K
20260501T12Z_MSC_GDPS_WindU_IsbL-0100_LatLon0.15_PT024H.grib2 2026-05-01 15:56 924K
20260501T12Z_MSC_GDPS_WindU_IsbL-0150_LatLon0.15_PT024H.grib2 2026-05-01 15:56 1.0M
20260501T12Z_MSC_GDPS_WindU_IsbL-0175_LatLon0.15_PT024H.grib2 2026-05-01 15:56 1.0M
20260501T12Z_MSC_GDPS_WindU_IsbL-0200_LatLon0.15_PT024H.grib2 2026-05-01 15:56 841K
20260501T12Z_MSC_GDPS_WindU_IsbL-0225_LatLon0.15_PT024H.grib2 2026-05-01 15:56 852K
20260501T12Z_MSC_GDPS_WindU_IsbL-0250_LatLon0.15_PT024H.grib2 2026-05-01 15:56 855K
20260501T12Z_MSC_GDPS_WindU_IsbL-0275_LatLon0.15_PT024H.grib2 2026-05-01 15:56 883K
20260501T12Z_MSC_GDPS_WindU_IsbL-0300_LatLon0.15_PT024H.grib2 2026-05-01 15:56 875K
20260501T12Z_MSC_GDPS_WindU_IsbL-0350_LatLon0.15_PT024H.grib2 2026-05-01 15:56 887K
20260501T12Z_MSC_GDPS_WindU_IsbL-0400_LatLon0.15_PT024H.grib2 2026-05-01 15:56 890K
20260501T12Z_MSC_GDPS_WindU_IsbL-0450_LatLon0.15_PT024H.grib2 2026-05-01 15:56 1.1M
20260501T12Z_MSC_GDPS_WindU_IsbL-0500_LatLon0.15_PT024H.grib2 2026-05-01 15:56 1.1M
20260501T12Z_MSC_GDPS_WindU_IsbL-0550_LatLon0.15_PT024H.grib2 2026-05-01 15:56 1.1M
20260501T12Z_MSC_GDPS_WindU_IsbL-0600_LatLon0.15_PT024H.grib2 2026-05-01 15:56 1.2M
20260501T12Z_MSC_GDPS_WindU_IsbL-0650_LatLon0.15_PT024H.grib2 2026-05-01 15:56 1.2M
20260501T12Z_MSC_GDPS_WindU_IsbL-0700_LatLon0.15_PT024H.grib2 2026-05-01 15:56 1.2M
20260501T12Z_MSC_GDPS_WindU_IsbL-0750_LatLon0.15_PT024H.grib2 2026-05-01 15:56 1.3M
20260501T12Z_MSC_GDPS_WindU_IsbL-0800_LatLon0.15_PT024H.grib2 2026-05-01 15:56 1.4M
20260501T12Z_MSC_GDPS_WindU_IsbL-0850_LatLon0.15_PT024H.grib2 2026-05-01 15:56 1.4M
20260501T12Z_MSC_GDPS_WindU_IsbL-0875_LatLon0.15_PT024H.grib2 2026-05-01 15:56 1.5M
20260501T12Z_MSC_GDPS_WindU_IsbL-0900_LatLon0.15_PT024H.grib2 2026-05-01 15:56 1.5M
20260501T12Z_MSC_GDPS_WindU_IsbL-0925_LatLon0.15_PT024H.grib2 2026-05-01 15:56 1.5M
20260501T12Z_MSC_GDPS_WindU_IsbL-0950_LatLon0.15_PT024H.grib2 2026-05-01 15:56 1.4M
20260501T12Z_MSC_GDPS_WindU_IsbL-0970_LatLon0.15_PT024H.grib2 2026-05-01 15:56 1.4M
20260501T12Z_MSC_GDPS_WindU_IsbL-0985_LatLon0.15_PT024H.grib2 2026-05-01 15:56 1.4M
20260501T12Z_MSC_GDPS_WindU_IsbL-1000_LatLon0.15_PT024H.grib2 2026-05-01 15:56 1.4M
20260501T12Z_MSC_GDPS_WindU_IsbL-1015_LatLon0.15_PT024H.grib2 2026-05-01 15:56 1.4M
20260501T12Z_MSC_GDPS_WindV_AGL-10m_LatLon0.15_PT024H.grib2 2026-05-01 15:56 1.3M
20260501T12Z_MSC_GDPS_WindV_AGL-120m_LatLon0.15_PT024H.grib2 2026-05-01 15:56 1.0M
20260501T12Z_MSC_GDPS_WindV_AGL-40m_LatLon0.15_PT024H.grib2 2026-05-01 15:56 1.0M
20260501T12Z_MSC_GDPS_WindV_AGL-80m_LatLon0.15_PT024H.grib2 2026-05-01 15:56 1.0M
20260501T12Z_MSC_GDPS_WindV_IsbL-0001_LatLon0.15_PT024H.grib2 2026-05-01 15:56 713K
20260501T12Z_MSC_GDPS_WindV_IsbL-0005_LatLon0.15_PT024H.grib2 2026-05-01 15:56 766K
20260501T12Z_MSC_GDPS_WindV_IsbL-0010_LatLon0.15_PT024H.grib2 2026-05-01 15:56 798K
20260501T12Z_MSC_GDPS_WindV_IsbL-0020_LatLon0.15_PT024H.grib2 2026-05-01 15:56 852K
20260501T12Z_MSC_GDPS_WindV_IsbL-0030_LatLon0.15_PT024H.grib2 2026-05-01 15:56 853K
20260501T12Z_MSC_GDPS_WindV_IsbL-0050_LatLon0.15_PT024H.grib2 2026-05-01 15:56 902K
20260501T12Z_MSC_GDPS_WindV_IsbL-0100_LatLon0.15_PT024H.grib2 2026-05-01 15:56 1.1M
20260501T12Z_MSC_GDPS_WindV_IsbL-0150_LatLon0.15_PT024H.grib2 2026-05-01 15:56 1.0M
20260501T12Z_MSC_GDPS_WindV_IsbL-0175_LatLon0.15_PT024H.grib2 2026-05-01 15:56 1.0M
20260501T12Z_MSC_GDPS_WindV_IsbL-0200_LatLon0.15_PT024H.grib2 2026-05-01 15:56 840K
20260501T12Z_MSC_GDPS_WindV_IsbL-0225_LatLon0.15_PT024H.grib2 2026-05-01 15:56 849K
20260501T12Z_MSC_GDPS_WindV_IsbL-0250_LatLon0.15_PT024H.grib2 2026-05-01 15:56 908K
20260501T12Z_MSC_GDPS_WindV_IsbL-0275_LatLon0.15_PT024H.grib2 2026-05-01 15:56 935K
20260501T12Z_MSC_GDPS_WindV_IsbL-0300_LatLon0.15_PT024H.grib2 2026-05-01 15:56 924K
20260501T12Z_MSC_GDPS_WindV_IsbL-0350_LatLon0.15_PT024H.grib2 2026-05-01 15:56 938K
20260501T12Z_MSC_GDPS_WindV_IsbL-0400_LatLon0.15_PT024H.grib2 2026-05-01 15:56 882K
20260501T12Z_MSC_GDPS_WindV_IsbL-0450_LatLon0.15_PT024H.grib2 2026-05-01 15:56 1.1M
20260501T12Z_MSC_GDPS_WindV_IsbL-0500_LatLon0.15_PT024H.grib2 2026-05-01 15:56 1.1M
20260501T12Z_MSC_GDPS_WindV_IsbL-0550_LatLon0.15_PT024H.grib2 2026-05-01 15:56 1.1M
20260501T12Z_MSC_GDPS_WindV_IsbL-0600_LatLon0.15_PT024H.grib2 2026-05-01 15:56 1.1M
20260501T12Z_MSC_GDPS_WindV_IsbL-0650_LatLon0.15_PT024H.grib2 2026-05-01 15:56 1.2M
20260501T12Z_MSC_GDPS_WindV_IsbL-0700_LatLon0.15_PT024H.grib2 2026-05-01 15:56 1.2M
20260501T12Z_MSC_GDPS_WindV_IsbL-0750_LatLon0.15_PT024H.grib2 2026-05-01 15:56 1.3M
20260501T12Z_MSC_GDPS_WindV_IsbL-0800_LatLon0.15_PT024H.grib2 2026-05-01 15:56 1.4M
20260501T12Z_MSC_GDPS_WindV_IsbL-0850_LatLon0.15_PT024H.grib2 2026-05-01 15:56 1.4M
20260501T12Z_MSC_GDPS_WindV_IsbL-0875_LatLon0.15_PT024H.grib2 2026-05-01 15:56 1.4M
20260501T12Z_MSC_GDPS_WindV_IsbL-0900_LatLon0.15_PT024H.grib2 2026-05-01 15:56 1.5M
20260501T12Z_MSC_GDPS_WindV_IsbL-0925_LatLon0.15_PT024H.grib2 2026-05-01 15:56 1.5M
20260501T12Z_MSC_GDPS_WindV_IsbL-0950_LatLon0.15_PT024H.grib2 2026-05-01 15:56 1.4M
20260501T12Z_MSC_GDPS_WindV_IsbL-0970_LatLon0.15_PT024H.grib2 2026-05-01 15:56 1.4M
20260501T12Z_MSC_GDPS_WindV_IsbL-0985_LatLon0.15_PT024H.grib2 2026-05-01 15:56 1.4M
20260501T12Z_MSC_GDPS_WindV_IsbL-1000_LatLon0.15_PT024H.grib2 2026-05-01 15:56 1.4M
20260501T12Z_MSC_GDPS_WindV_IsbL-1015_LatLon0.15_PT024H.grib2 2026-05-01 15:56 1.3M